CAPE
0 0 0 0 0 0 0 2 1649 1959 1905 2019 1924 1680 1364 1438 1042 918 979 1227 1263 1178 1155 1064 1405 809 765 803 788 663 433 233
0 0 0 0 0 0 0 0 758 1925 2016 1966 2033 1881 1775 1657 1308 899 840 969 1047 1018 975 922 908 827 688 695 873 558 532 297
0 0 0 0 0 0 0 0 143 1851 1854 1874 1821 1688 1613 1546 1523 1044 853 904 987 1126 1100 1099 1041 900 764 841 1120 535 387 377
0 0 0 0 0 0 0 0 2 1571 1813 1961 1861 1838 1580 1744 1665 1371 1256 1323 1332 1346 1370 1098 1282 1627 610 928 995 905 331 316
0 0 0 0 0 40 0 0 0 873 1743 1797 1505 1516 1383 1154 1504 1813 1413 1568 1671 1674 1606 1379 1224 766 642 800 921 794 546 249
0 0 0 0 0 0 188 88 141 11 1704 1702 1558 1428 1356 1106 1126 1274 1153 1333 1432 1688 1453 1296 665 316 795 806 661 1009 288 255
0 0 0 0 0 0 17 277 483 105 1640 1745 1533 1365 1335 1275 1050 1266 1188 1300 1652 1309 1181 844 324 291 583 708 785 720 325 193
0 0 0 0 0 0 47 54 476 474 1247 1709 1577 1407 1335 1214 1057 987 1139 1102 1276 873 718 441 187 289 210 155 596 565 258 110
0 0 0 0 0 7 34 51 251 884 1390 1694 1685 1620 1374 1271 1139 1051 909 855 957 683 534 304 233 354 262 349 165 389 260 125
0 0 5 1 1 0 27 53 215 1077 1898 2134 1848 1746 1417 1299 1146 1097 900 792 775 649 404 172 251 300 163 114 512 335 101 154
0 0 0 0 3 23 71 89 130 937 1504 1770 1786 1392 1478 1165 1175 1051 899 766 621 528 299 131 83 102 52 268 173 138 84 57
0 0 0 8 5 44 111 101 118 629 1310 1349 1419 1388 1133 898 966 886 649 520 536 415 144 94 65 56 131 173 94 30 12 16
0 0 0 7 5 31 67 77 81 82 387 267 495 453 340 316 346 409 437 541 284 99 107 189 73 138 52 16 4 1 1 5
0 0 0 0 2 37 124 102 110 77 41 102 182 221 123 127 216 252 356 210 111 136 125 118 98 33 3 2 4 5 4 8
0 0 0 0 1 19 33 93 99 164 80 38 89 38 15 52 96 127 235 176 187 188 117 81 33 34 2 0 0 0 7 1
0 0 0 0 0 6 14 5 89 74 79 115 81 206 54 14 46 34 110 134 142 70 54 49 23 0 0 4 2 0 4 11
0 0 0 0 0 3 20 14 11 3 0 25 100 36 7 23 14 61 32 105 60 46 31 22 7 1 9 13 26 13 25 7
0 0 0 0 0 10 2 3 14 11 34 40 20 12 49 17 88 88 97 84 102 63 22 5 6 7 15 23 16 13 8 10
0 0 0 0 0 5 1 1 5 11 14 12 8 20 0 89 34 49 59 75 65 125 56 17 8 6 8 21 26 14 7 14
CIN
-0 -0 -0 -0 -0 -0 -0 -28 -166 -146 -137 -107 -71 -40 -30 -23 -27 -266 -224 -160 -133 -133 -98 -90 -13 -30 -6 -0 -0 -0 -4 -9
-0 -0 -0 -0 -0 -0 -0 -0 -278 -124 -77 -70 -67 -42 -57 -45 -38 -35 -253 -179 -150 -132 -124 -112 -77 -44 -30 -2 -0 -1 -0 -0
-0 -0 -0 -0 -0 -0 -0 -0 -179 -123 -99 -93 -123 -156 -142 -140 -44 -69 -247 -191 -165 -119 -102 -82 -68 -45 -39 -7 -0 -8 -1 -0
-0 -0 -0 -0 -0 -0 -0 -0 -122 -137 -128 -92 -82 -90 -103 -63 -85 -73 -166 -121 -99 -80 -60 -73 -38 -6 -71 -7 -0 -0 -3 -0
-0 -0 -0 -0 -0 -193 -0 -0 -0 -226 -118 -96 -121 -137 -168 -194 -154 -123 -149 -94 -82 -43 -30 -34 -46 -76 -69 -26 -1 -0 -0 -2
-0 -0 -0 -0 -0 -0 -112 -258 -306 -409 -102 -136 -181 -186 -183 -228 -216 -174 -63 -124 -115 -36 -31 -28 -97 -174 -54 -20 -8 -1 -5 -14
-0 -0 -0 -0 -0 -0 -62 -133 -190 -395 -94 -112 -167 -243 -212 -166 -189 -155 -98 -122 -92 -82 -61 -66 -141 -157 -69 -23 -0 -0 -0 -0
-0 -0 -0 -0 -0 -92 -20 -137 -114 -230 -107 -74 -122 -164 -193 -184 -162 -197 -95 -144 -121 -119 -137 -133 -183 -130 -123 -116 -5 -0 -0 -6
-0 -0 -0 -0 -0 -14 -21 -243 -108 -108 -90 -39 -56 -69 -134 -153 -138 -99 -138 -129 -142 -132 -73 -59 -144 -87 -86 -37 -59 -2 -0 -4
-0 -0 -0 -0 -0 -14 -159 -189 -156 -51 -0 -0 -6 -42 -85 -104 -127 -79 -70 -88 -87 -67 -76 -182 -102 -72 -88 -106 -5 -2 -10 -8
-0 -0 -0 -0 -0 -26 -87 -148 -141 -18 -3 -0 -0 -37 -18 -60 -60 -63 -83 -63 -84 -80 -65 -129 -199 -133 -144 -58 -48 -25 -23 -27
-0 -0 -0 -1 -0 -22 -21 -63 -65 -22 -0 -0 -0 -8 -30 -65 -48 -48 -78 -71 -56 -57 -92 -68 -73 -163 -100 -72 -63 -22 -106 -0
-0 -0 -0 -0 -0 -18 -14 -16 -50 -70 -29 -64 -45 -62 -69 -63 -69 -47 -47 -60 -48 -57 -56 -64 -124 -93 -148 -156 -2 -6 -2 -1
-0 -0 -0 -0 -0 -7 -0 -1 -19 -34 -37 -45 -36 -50 -91 -49 -48 -35 -10 -28 -30 -32 -46 -80 -110 -155 -5 -12 -2 -1 -0 -0
-0 -0 -0 -0 -0 -26 -20 -0 -0 -0 -9 -5 -66 -64 -27 -2 -26 -49 -0 -1 -1 -4 -49 -52 -22 -141 -0 -0 -0 -0 -0 -0
-0 -0 -0 -0 -0 -0 -17 -26 -0 -0 -0 -2 -2 -0 -24 -12 -2 -0 -0 -0 -0 -39 -61 -63 -53 -0 -0 -5 -2 -0 -0 -3
-0 -0 -0 -0 -0 -0 -0 -1 -46 -4 -0 -11 -0 -17 -10 -1 -0 -0 -3 -0 -8 -36 -43 -37 -4 -0 -3 -4 -0 -0 -0 -1
-0 -0 -0 -0 -0 -0 -1 -0 -0 -34 -38 -6 -3 -0 -3 -0 -0 -0 -0 -0 -0 -43 -41 -63 -5 -0 -9 -3 -6 -5 -3 -0
-0 -0 -0 -0 -0 -0 -1 -0 -0 -0 -1 -4 -0 -1 -0 -0 -5 -1 -0 -0 -1 -0 -25 -70 -51 -41 -2 -1 -0 -9 -5 -11
Wind_Speed
nan nan nan nan nan nan nan nan 45 48 51 45 46 45 44 42 39 37 39 38 36 35 32 29 30 28 30 28 29 25 24 22
nan nan nan nan nan nan nan nan 45 50 49 51 47 41 40 40 40 38 41 40 36 31 31 29 27 28 28 28 25 25 24 26
nan nan nan nan nan nan nan nan 46 46 48 46 47 42 39 38 43 40 40 36 33 31 30 28 26 28 29 28 25 24 24 28
nan nan nan nan nan nan nan nan nan 45 44 52 54 53 54 48 47 42 39 34 34 32 32 29 26 29 27 25 24 24 27 28
nan nan nan nan nan nan nan nan nan 41 47 51 46 42 42 42 43 38 40 32 34 35 34 29 26 29 26 25 26 24 28 30
nan nan nan nan nan nan 58 nan 53 nan 44 46 48 41 37 43 44 39 40 34 33 41 36 30 27 29 25 25 27 26 27 32
nan nan nan nan nan nan nan 52 53 52 39 39 39 35 42 46 43 41 42 37 41 40 34 32 28 27 25 25 28 29 27 32
nan nan nan nan nan nan nan nan 50 51 30 33 33 29 38 39 38 43 42 40 41 35 33 35 30 27 25 28 28 30 28 31
nan nan nan nan nan nan nan nan 48 44 36 40 36 31 29 36 39 46 44 42 43 36 40 39 33 31 27 27 29 27 26 29
nan nan nan nan nan nan nan nan 44 43 30 29 36 38 45 37 43 52 49 48 44 43 45 41 34 34 29 28 26 29 26 28
nan nan nan nan nan nan nan nan 39 47 52 41 36 40 40 42 47 49 48 45 42 44 45 42 nan 37 nan 26 28 32 nan nan
nan nan nan nan nan nan 30 36 31 28 44 52 37 40 41 38 46 52 50 46 43 43 42 nan nan nan 34 29 nan nan nan nan
nan nan nan nan nan nan nan nan nan nan 38 50 43 45 46 42 42 50 50 50 45 nan 43 44 nan 39 nan nan nan nan nan nan
nan nan nan nan nan nan 32 32 27 nan nan 38 33 33 38 41 42 53 48 50 47 46 45 43 nan nan nan nan nan nan nan nan
nan nan nan nan nan nan nan nan nan 21 nan nan nan nan nan nan nan 34 53 52 51 48 46 nan nan nan nan nan nan nan nan nan
nan nan nan nan nan nan nan nan nan nan nan 33 nan 27 nan nan nan nan 46 53 51 nan nan nan nan nan nan nan nan nan nan nan
nan nan nan nan nan nan nan nan nan nan nan nan 30 nan nan nan nan nan nan 46 nan nan nan nan nan nan nan nan nan nan nan nan
nan nan nan nan nan nan nan nan nan nan nan nan nan nan nan nan nan nan nan nan 49 nan nan nan nan nan nan nan nan nan nan nan
nan nan nan nan nan nan nan nan nan nan nan nan nan nan nan nan nan nan nan nan nan 49 nan nan nan nan nan nan nan nan nan nan
Wind_Direction
nan nan nan nan nan nan nan nan 266 273 275 265 258 259 259 260 265 264 268 261 266 269 277 286 294 303 300 292 295 293 292 288
nan nan nan nan nan nan nan nan 263 265 268 269 266 263 260 260 261 264 267 262 264 270 271 285 296 304 301 292 295 293 286 287
nan nan nan nan nan nan nan nan 257 261 261 265 260 261 250 252 253 253 260 261 264 265 275 281 294 296 295 289 296 285 281 287
nan nan nan nan nan nan nan nan nan 262 265 260 249 248 247 242 247 250 254 260 262 264 277 275 287 292 287 289 298 296 286 280
nan nan nan nan nan nan nan nan nan 250 258 263 265 256 252 255 254 254 254 255 255 262 264 274 286 287 281 292 294 295 288 282
nan nan nan nan nan nan 240 nan 240 nan 255 259 260 258 241 244 246 253 252 246 250 258 263 271 282 279 278 292 295 295 292 286
nan nan nan nan nan nan nan 235 235 227 243 251 256 259 247 242 244 246 243 236 239 255 257 263 272 278 281 285 290 292 292 290
nan nan nan nan nan nan nan nan 217 215 223 239 244 236 242 246 247 246 240 238 240 255 259 260 265 273 279 287 286 285 297 291
nan nan nan nan nan nan nan nan 209 207 213 235 232 228 237 236 239 237 230 236 243 251 249 262 265 268 275 279 276 279 292 285
nan nan nan nan nan nan nan nan 202 205 202 222 236 224 235 234 240 237 227 231 235 242 247 257 261 265 269 276 276 283 286 278
nan nan nan nan nan nan nan nan 200 201 201 223 225 225 227 229 235 238 241 238 239 243 248 253 nan 260 nan 277 272 277 nan nan
nan nan nan nan nan nan 209 213 212 208 202 202 224 228 234 234 238 239 240 239 235 239 246 nan nan nan 264 266 nan nan nan nan
nan nan nan nan nan nan nan nan nan nan 197 199 226 231 232 231 236 240 246 239 238 nan 242 251 nan 260 nan nan nan nan nan nan
nan nan nan nan nan nan 211 217 205 nan nan 202 223 228 238 240 248 250 239 238 241 238 241 247 nan nan nan nan nan nan nan nan
nan nan nan nan nan nan nan nan nan 221 nan nan nan nan nan nan nan 265 238 238 246 239 238 nan nan nan nan nan nan nan nan nan
nan nan nan nan nan nan nan nan nan nan nan 215 nan 209 nan nan nan nan 225 233 243 nan nan nan nan nan nan nan nan nan nan nan
nan nan nan nan nan nan nan nan nan nan nan nan 226 nan nan nan nan nan nan 238 nan nan nan nan nan nan nan nan nan nan nan nan
nan nan nan nan nan nan nan nan nan nan nan nan nan nan nan nan nan nan nan nan 241 nan nan nan nan nan nan nan nan nan nan nan
nan nan nan nan nan nan nan nan nan nan nan nan nan nan nan nan nan nan nan nan nan 230 nan nan nan nan nan nan nan nan nan nan